WX2NJ-13 Weather Reports


time (UTC)temp
C
wind
direction
speed
KPH
gust
KPH
rain 1hr
cm
rain 24hr
cm
rain mn
cm
humidity
%
barometer
mb
20260504020833 8 180 0.0 0.0 0.00 0.00 0.00 55 1014.5
20260504020335 8 180 0.0 0.0 0.00 0.00 0.00 56 1014.5
20260504015833 8 180 0.0 0.0 0.00 0.00 0.00 56 1014.5
20260504015335 8 180 0.0 0.0 0.00 0.00 0.00 56 1014.5
20260504014836 8 180 0.0 0.0 0.00 0.00 0.00 56 1014.5
20260504014335 8 180 0.0 0.0 0.00 0.00 0.00 55 1014.4
20260504013836 8 180 0.0 0.0 0.00 0.00 0.00 56 1014.4
20260504013337 8 180 0.0 0.0 0.00 0.00 0.00 56 1014.3
20260504012836 8 180 0.0 0.0 0.00 0.00 0.00 56 1014.3
20260504012337 8 180 0.0 0.0 0.00 0.00 0.00 55 1014.2
20260504011839 8 180 0.0 0.0 0.00 0.00 0.00 55 1014.1
20260504011337 8 180 0.0 0.0 0.00 0.00 0.00 54 1014.0
20260504010839 8 180 0.0 0.0 0.00 0.00 0.00 54 1013.9
20260504010340 9 180 0.0 0.0 0.00 0.00 0.00 54 1013.8
20260504005839 9 180 0.0 0.0 0.00 0.00 0.00 53 1013.8
20260504005340 9 180 0.0 0.0 0.00 0.00 0.00 53 1013.7
20260504004841 9 180 0.0 0.0 0.00 0.00 0.00 52 1013.7
20260504004340 10 180 0.0 0.0 0.00 0.00 0.00 52 1013.6
20260504003841 10 180 0.0 0.0 0.00 0.00 0.00 50 1013.6
20260504003342 10 180 0.0 0.0 0.00 0.00 0.00 50 1013.5
20260504002841 10 180 0.0 0.0 0.00 0.00 0.00 50 1013.5
20260504002342 11 180 0.0 0.0 0.00 0.00 0.00 49 1013.4
20260504001844 11 180 0.0 0.0 0.00 0.00 0.00 48 1013.4
20260504001342 11 180 0.0 0.0 0.00 0.00 0.00 48 1013.3
20260504000346 12 180 0.0 0.0 0.00 0.00 0.00 46 1013.3
20260503235844 12 180 0.0 0.0 0.00 0.00 0.00 44 1013.1
20260503235345 12 180 0.0 0.0 0.00 0.00 0.00 43 1013.1
20260503234846 12 180 0.0 0.0 0.00 0.00 0.00 42 1013.0
20260503234345 12 180 0.0 0.0 0.00 0.00 0.00 42 1012.9
20260503233846 13 180 0.0 0.0 0.00 0.00 0.00 41 1012.9
20260503233348 13 180 0.0 0.0 0.00 0.00 0.00 40 1012.9
20260503232845 13 180 0.0 0.0 0.00 0.00 0.00 39 1012.8
20260503232347 13 180 0.0 0.0 0.00 0.00 0.00 39 1012.7
20260503231848 13 180 0.0 0.0 0.00 0.00 0.00 38 1012.7
20260503231347 13 180 0.0 0.0 0.00 0.00 0.00 37 1012.8
20260503230848 13 180 1.6 0.0 0.00 0.00 0.00 37 1012.7
20260503230349 14 34 0.0 0.0 0.00 0.00 0.00 37 1012.8
20260503225848 14 34 0.0 0.0 0.00 0.00 0.00 35 1012.7
20260503225350 14 184 0.0 0.0 0.00 0.00 0.00 35 1012.7
20260503224851 14 41 1.6 0.0 0.00 0.00 0.00 35 1012.8
20260503224350 14 200 0.0 4.8 0.00 0.00 0.00 35 1012.7
20260503223851 15 62 0.0 0.0 0.00 0.00 0.00 34 1012.7
20260503223352 15 132 3.2 1.6 0.00 0.00 0.00 33 1012.6
20260503222851 15 245 4.8 0.0 0.00 0.00 0.00 34 1012.6
20260503222353 15 125 0.0 0.0 0.00 0.00 0.00 33 1012.6
20260503221854 15 260 1.6 1.6 0.00 0.00 0.00 33 1012.6
20260503221353 15 253 3.2 3.2 0.00 0.00 0.00 33 1012.6
20260503220854 15 51 1.6 0.0 0.00 0.00 0.00 31 1012.5
20260503220356 15 273 1.6 0.0 0.00 0.00 0.00 32 1012.4
20260503215854 15 243 3.2 6.4 0.00 0.00 0.00 31 1012.4
20260503215356 15 79 0.0 0.0 0.00 0.00 0.00 32 1012.4
20260503214857 15 238 3.2 0.0 0.00 0.00 0.00 31 1012.4
20260503214356 16 150 4.8 1.6 0.00 0.00 0.00 29 1012.3
20260503213857 16 287 3.2 4.8 0.00 0.00 0.00 31 1012.4
20260503213359 16 290 1.6 4.8 0.00 0.00 0.00 30 1012.2
20260503212857 16 219 0.0 4.8 0.00 0.00 0.00 30 1012.3
20260503212358 16 330 1.6 0.0 0.00 0.00 0.00 29 1012.3
20260503211900 17 294 0.0 1.6 0.00 0.00 0.00 29 1012.2
20260503211359 17 222 6.4 0.0 0.00 0.00 0.00 28 1012.2
20260503210900 17 215 1.6 1.6 0.00 0.00 0.00 29 1012.3
20260503210401 17 297 3.2 3.2 0.00 0.00 0.00 29 1012.3
20260503205900 17 194 4.8 1.6 0.00 0.00 0.00 29 1012.2
20260503205401 17 269 6.4 1.6 0.00 0.00 0.00 27 1012.2
20260503204903 17 259 3.2 3.2 0.00 0.00 0.00 28 1012.2
20260503204401 17 245 1.6 3.2 0.00 0.00 0.00 29 1012.1
20260503203903 17 194 4.8 1.6 0.00 0.00 0.00 29 1012.1
20260503203404 17 105 1.6 1.6 0.00 0.00 0.00 30 1012.1
20260503202903 17 293 4.8 4.8 0.00 0.00 0.00 30 1012.1
20260503202404 17 169 3.2 4.8 0.00 0.00 0.00 28 1012.1
20260503201905 17 260 1.6 0.0 0.00 0.00 0.00 30 1012.1
20260503201404 17 276 4.8 1.6 0.00 0.00 0.00 29 1012.0
20260503200905 17 280 1.6 0.0 0.00 0.00 0.00 30 1012.2
20260503200407 17 218 0.0 0.0 0.00 0.00 0.00 32 1012.2
20260503195905 16 176 6.4 4.8 0.00 0.00 0.00 32 1012.4
20260503195407 16 326 4.8 4.8 0.00 0.00 0.00 33 1012.3
20260503194908 17 94 3.2 3.2 0.00 0.00 0.00 30 1012.4
20260503194407 17 158 0.0 0.0 0.00 0.00 0.00 32 1012.4
20260503193908 17 193 1.6 4.8 0.00 0.00 0.00 31 1012.5
20260503193410 17 270 3.2 9.7 0.00 0.00 0.00 33 1012.5
20260503192908 16 186 1.6 9.7 0.00 0.00 0.00 34 1012.6
20260503192410 16 329 4.8 1.6 0.00 0.00 0.00 34 1012.6
20260503191911 16 257 4.8 3.2 0.00 0.00 0.00 35 1012.6
20260503191410 16 354 1.6 3.2 0.00 0.00 0.00 33 1012.7
20260503190911 16 246 3.2 1.6 0.00 0.00 0.00 37 1012.8
20260503190412 16 308 4.8 3.2 0.00 0.00 0.00 34 1012.7
20260503185911 16 145 3.2 9.7 0.00 0.00 0.00 33 1012.7
20260503185412 16 42 1.6 0.0 0.00 0.00 0.00 36 1012.7
20260503184914 16 89 6.4 4.8 0.00 0.00 0.00 35 1012.8
20260503184412 16 300 3.2 1.6 0.00 0.00 0.00 35 1012.9
20260503183914 16 221 6.4 6.4 0.00 0.00 0.00 35 1013.0
20260503183415 15 287 6.4 3.2 0.00 0.00 0.00 34 1012.9
20260503182914 15 201 6.4 3.2 0.00 0.00 0.00 37 1013.0
20260503182415 15 264 1.6 0.0 0.00 0.00 0.00 36 1013.1
20260503181917 15 263 6.4 6.4 0.00 0.00 0.00 36 1013.1
20260503181415 15 82 4.8 1.6 0.00 0.00 0.00 36 1013.1
20260503180916 15 46 1.6 3.2 0.00 0.00 0.00 38 1013.0
20260503180418 15 325 3.2 3.2 0.00 0.00 0.00 38 1013.1
20260503175916 14 52 3.2 4.8 0.00 0.00 0.00 39 1013.2
20260503175418 14 242 3.2 0.0 0.00 0.00 0.00 39 1013.2
20260503174919 14 58 1.6 0.0 0.00 0.00 0.00 39 1013.1
20260503174418 14 27 3.2 3.2 0.00 0.00 0.00 38 1013.2
20260503173919 15 1 0.0 0.0 0.00 0.00 0.00 38 1013.3
20260503173421 15 305 1.6 3.2 0.00 0.00 0.00 35 1013.2
20260503172919 15 222 4.8 3.2 0.00 0.00 0.00 38 1013.2
20260503172421 15 239 0.0 0.0 0.00 0.00 0.00 37 1013.1
20260503171922 15 48 4.8 11.3 0.00 0.00 0.00 38 1013.0
20260503171421 15 347 4.8 3.2 0.00 0.00 0.00 38 1013.1
20260503170922 15 248 4.8 4.8 0.00 0.00 0.00 38 1013.1
20260503170424 15 107 3.2 1.6 0.00 0.00 0.00 40 1013.2
20260503150933 13 293 4.8 4.8 0.00 0.00 0.00 44 1013.7
20260503150435 13 345 3.2 1.6 0.00 0.00 0.00 43 1013.7
20260503130947 9 352 1.6 4.8 0.00 0.00 0.00 59 1013.5
20260503130448 9 262 3.2 4.8 0.00 0.00 0.00 59 1013.5
20260503110501 7 201 0.0 1.6 0.00 0.00 0.00 70 1012.5
20260503090512 5 124 0.0 0.0 0.00 0.00 0.00 76 1010.8
20260503081514 6 124 0.0 0.0 0.00 0.00 0.00 71 1010.5
20260503081015 6 124 0.0 0.0 0.00 0.00 0.00 70 1010.5
20260503080516 6 124 0.0 0.0 0.00 0.00 0.00 70 1010.5
20260503072519 8 124 0.0 0.0 0.00 0.00 0.00 67 1010.5
20260503072020 8 124 0.0 0.0 0.00 0.00 0.00 67 1010.5
20260503071519 8 124 0.0 0.0 0.00 0.00 0.00 67 1010.6
20260503071020 8 124 0.0 0.0 0.00 0.00 0.00 67 1010.6
20260503070521 8 124 0.0 0.0 0.00 0.00 0.00 67 1010.6
20260503055027 8 124 0.0 0.0 0.00 0.00 0.00 70 1010.7
20260503054526 8 124 0.0 0.0 0.00 0.00 0.00 71 1010.7
20260503054027 8 124 0.0 0.0 0.00 0.00 0.00 71 1010.8
20260503053528 8 124 0.0 0.0 0.00 0.00 0.00 72 1010.9
20260503053027 8 124 0.0 0.0 0.00 0.00 0.00 73 1011.0
20260503052528 8 124 0.0 0.0 0.00 0.00 0.00 73 1011.0
20260503052030 8 124 0.0 0.0 0.00 0.00 0.00 74 1010.8
20260503051528 8 124 0.0 0.0 0.00 0.00 0.00 75 1010.9
20260503051030 8 124 0.0 0.0 0.00 0.00 0.00 75 1010.9
20260503050531 8 124 0.0 0.0 0.00 0.00 0.00 76 1011.0
20260503050029 8 124 0.0 0.0 0.00 0.00 0.00 76 1011.0
20260503045531 8 124 0.0 0.0 0.00 0.00 0.00 77 1011.0
20260503045032 8 124 0.0 0.0 0.00 0.00 0.00 78 1011.1
20260503044531 8 124 0.0 0.0 0.00 0.00 0.00 79 1011.1
20260503044032 8 124 0.0 0.0 0.00 0.00 0.00 80 1011.2
20260503043533 8 124 0.0 0.0 0.00 0.00 0.00 81 1011.3
20260503043032 8 124 0.0 0.0 0.00 0.00 0.00 82 1011.4
20260503042533 8 124 0.0 0.0 0.00 0.00 0.00 83 1011.4
20260503042035 8 124 0.0 0.0 0.00 0.00 0.00 84 1011.5
20260503041533 8 124 0.0 0.0 0.00 0.00 0.00 85 1011.6
20260503041035 8 124 0.0 0.0 0.00 0.00 0.00 85 1011.6
20260503040537 8 124 0.0 0.0 0.00 0.00 0.00 86 1011.6
20260503040035 8 124 0.0 0.0 0.00 0.00 0.00 86 1011.6
20260503035536 8 124 0.0 0.0 0.00 0.03 0.00 87 1011.6
20260503035038 8 124 0.0 0.0 0.00 0.03 0.00 87 1011.3
20260503034536 8 124 0.0 0.0 0.00 0.03 0.00 87 1011.3
20260503034038 8 124 0.0 0.0 0.00 0.03 0.00 88 1011.3
20260503033539 8 124 0.0 0.0 0.00 0.03 0.00 88 1011.2
20260503033038 8 124 0.0 0.0 0.00 0.03 0.00 88 1011.3
20260503032539 8 124 0.0 0.0 0.00 0.03 0.00 88 1011.4
20260503032040 8 124 0.0 0.0 0.00 0.03 0.00 88 1011.4
20260503031539 8 124 0.0 0.0 0.00 0.03 0.00 88 1011.6
20260503031040 8 124 0.0 0.0 0.00 0.03 0.00 88 1011.6
20260503030542 8 124 0.0 0.0 0.00 0.03 0.00 88 1011.5
20260503030040 8 124 0.0 0.0 0.00 0.03 0.00 88 1011.5
20260503025542 8 124 0.0 0.0 0.00 0.03 0.00 88 1011.5
20260503025043 8 124 0.0 0.0 0.00 0.03 0.00 88 1011.5
20260503024542 8 124 0.0 0.0 0.00 0.03 0.00 87 1011.4
20260503024043 8 124 0.0 0.0 0.00 0.03 0.00 87 1011.3
20260503023545 8 124 0.0 0.0 0.00 0.03 0.00 87 1011.3
20260503023043 8 124 0.0 0.0 0.00 0.03 0.00 87 1011.3
20260503022544 8 124 0.0 0.0 0.00 0.03 0.00 87 1011.4
20260503022046 8 124 0.0 0.0 0.00 0.03 0.00 86 1011.3
20260503021545 8 124 0.0 0.0 0.00 0.03 0.00 86 1011.5